This demonstration page uses our WeatherBlox Daily Observations layout. Learn more.

41.55636, -103.73856

Hourly Observations for December 17, 2016

Temp ( °F °C ) Dew Point ( °F °C ) Humidity (%) Winds ( mph kmh ) Pressure ( in mb ) Visibility ( mi km ) Precip ( " mm )
12:53 am 00:53 Cloudy -1 -18.3 -11 -23.9 62 62 N 14 22 30.1 1019 10 16.0934 0 0
1:53 am 01:53 Cloudy -1 -18.3 -11 -23.9 62 62 N 12 19 30.13 1020 10 16.0934 0 0
2:53 am 02:53 Cloudy -2 -18.9 -11 -23.9 65 65 N 15 24 30.13 1020 10 16.0934 0 0
3:53 am 03:53 Cloudy -3 -19.4 -13 -25 61 61 NNW 10 17 30.19 1023 10 16.0934 0 0
4:53 am 04:53 Clear -6 -21.1 -14 -25.6 67 67 NW 8 13 30.22 1024 10 16.0934 0 0
5:53 am 05:53 Clear -8 -22.2 -16 -26.7 67 67 NW 6 9 30.24 1024 10 16.0934 0 0
6:53 am 06:53 Clear -9 -22.8 -17 -27.2 67 67 NW 8 13 30.29 1026 10 16.0934 0 0
7:53 am 07:53 Sunny -10 -23.3 -18 -27.8 67 67 WNW 6 9 30.34 1028 10 16.0934 0 0
8:53 am 08:53 Sunny -7 -21.7 -18 -27.8 58 58 NW 10 17 30.33 1027 10 16.0934 0 0
9:53 am 09:53 Sunny -6 -21.1 -18 -27.8 55 55 NNW 8 13 30.37 1028 10 16.0934 0 0
10:53 am 10:53 Sunny -3 -19.4 -16 -26.7 53 53 NW 8 13 30.35 1028 10 16.0934 0 0
11:53 am 11:53 Sunny -2 -18.9 -15 -26.1 53 53 WNW 10 17 30.32 1027 10 16.0934 0 0
12:53 pm 12:53 Sunny -1 -18.3 -15 -26.1 51 51 WNW 9 15 30.31 1026 10 16.0934 0 0
1:53 pm 13:53 Sunny 0 -17.8 -14 -25.6 51 51 WNW 9 15 30.3 1026 10 16.0934 0 0
2:53 pm 14:53 Sunny 0 -17.8 -14 -25.6 51 51 WNW 10 17 30.31 1027 10 16.0934 0 0
3:53 pm 15:53 Sunny -1 -18.3 -15 -26.1 51 51 W 5 7 30.34 1027 10 16.0934 0 0
4:53 pm 16:53 Clear -8 -22.2 -17 -27.2 64 64 Calm 30.39 1029 10 16.0934 0 0
5:53 pm 17:53 Clear -13 -25 -20 -28.9 70 70 Calm 30.41 1030 10 16.0934 0 0
6:53 pm 18:53 Clear -16 -26.7 -22 -30 74 74 NNE 5 7 30.43 1030 10 16.0934 0 0
7:53 pm 19:53 Clear -19 -28.3 -26 -32.2 69 69 S 3 6 30.46 1032 10 16.0934 0 0
8:53 pm 20:53 Clear -19 -28.3 -26 -32.2 69 69 N 5 7 30.45 1031 10 16.0934 0 0
9:53 pm 21:53 Clear -19 -28.3 -25 -31.7 73 73 N 3 6 30.44 1031 10 16.0934 0 0
10:53 pm 22:53 Clear -20 -28.9 -27 -32.8 69 69 NNW 5 7 30.44 1031 10 16.0934 0 0
11:53 pm 23:53 Clear -21 -29.4 -26 -32.2 77 77 NNW 5 7 30.45 1031 10 16.0934 0 0

Powered by AerisWeather